When you browse on this site, cookies collect data to enhance your experience and personalize the content and advertising you see.
Visit our Privacy Policy to learn more. By continuing to use the site, you agree to this use of cookies and data.
  • In Deutschland
  • Länderverzeichnis
  • Für 7 Tage
  • Wassertemperatur
  • Wetterkarte
  • Widgets
  • user-avatar
    Anmelden

    Stündliche Wetter Geertruidenberg

    Heute, 25 Februar, Dienstag

    Zeit Temperatur Niederschläge Wind Luftdruck Luftfeuchtigkeit
    00:00 +9°C° 0.1 mm 8 m/S 752 mmHg 78%
    01:00 +8°C° 0 mm 7 m/S 752 mmHg 77%
    02:00 +7°C° 0 mm 6 m/S 751 mmHg 76%
    03:00 +5°C° 0 mm 6 m/S 751 mmHg 75%
    04:00 +5°C° 0 mm 6 m/S 751 mmHg 75%
    05:00 +5°C° 0 mm 6 m/S 751 mmHg 75%
    06:00 +4°C° 0 mm 6 m/S 751 mmHg 75%
    07:00 +5°C° 0.1 mm 7 m/S 750 mmHg 72%
    08:00 +5°C° 0.1 mm 7 m/S 750 mmHg 70%
    09:00 +5°C° 0.1 mm 8 m/S 750 mmHg 67%
    10:00 +6°C° 0.1 mm 8 m/S 750 mmHg 65%
    11:00 +6°C° 0.1 mm 9 m/S 749 mmHg 63%
    12:00 +6°C° 0.1 mm 9 m/S 749 mmHg 60%
    13:00 +6°C° 0.2 mm 9 m/S 749 mmHg 61%
    14:00 +6°C° 0.2 mm 9 m/S 748 mmHg 61%
    15:00 +6°C° 0.2 mm 9 m/S 747 mmHg 62%
    16:00 +5°C° 0 mm 7 m/S 747 mmHg 64%
    17:00 +4°C° 0 mm 6 m/S 747 mmHg 67%
    18:00 +4°C° 0 mm 4 m/S 747 mmHg 70%
    19:00 +4°C° 0.2 mm 4 m/S 746 mmHg 74%
    20:00 +3°C° 0.2 mm 4 m/S 745 mmHg 78%
    21:00 +3°C° 0.2 mm 3 m/S 745 mmHg 82%
    22:00 +2°C° 1 mm 5 m/S 744 mmHg 83%
    23:00 +1°C° 1 mm 6 m/S 744 mmHg 84%

    Morgen, 26 Februar, Mittwoch

    Zeit Temperatur Niederschläge Wind Luftdruck Luftfeuchtigkeit
    00:00 0°C° 1 mm 8 m/S 744 mmHg 85%
    01:00 0°C° 2.1 mm 8 m/S 744 mmHg 89%
    02:00 -1°C° 2.1 mm 8 m/S 743 mmHg 92%
    03:00 -1°C° 2.1 mm 8 m/S 743 mmHg 96%
    04:00 -1°C° 1.4 mm 7 m/S 743 mmHg 94%
    05:00 -1°C° 1.4 mm 7 m/S 744 mmHg 93%
    06:00 +1°C° 1.4 mm 6 m/S 744 mmHg 91%
    07:00 +1°C° 0.3 mm 6 m/S 745 mmHg 87%
    08:00 +2°C° 0.3 mm 6 m/S 746 mmHg 83%
    09:00 +2°C° 0.3 mm 7 m/S 746 mmHg 79%
    10:00 +3°C° 0.1 mm 7 m/S 747 mmHg 77%
    11:00 +3°C° 0.1 mm 7 m/S 748 mmHg 75%
    12:00 +2°C° 0.1 mm 8 m/S 749 mmHg 73%
    13:00 +3°C° 0.1 mm 7 m/S 749 mmHg 73%
    14:00 +4°C° 0.1 mm 7 m/S 750 mmHg 73%
    15:00 +4°C° 0.1 mm 7 m/S 750 mmHg 72%
    16:00 +3°C° 0 mm 6 m/S 751 mmHg 74%
    17:00 +2°C° 0 mm 5 m/S 751 mmHg 76%
    18:00 +1°C° 0 mm 4 m/S 752 mmHg 77%
    19:00 +1°C° 0.1 mm 4 m/S 752 mmHg 78%
    20:00 +1°C° 0.1 mm 4 m/S 753 mmHg 79%
    21:00 +1°C° 0.1 mm 4 m/S 753 mmHg 80%
    22:00 +1°C° 0.1 mm 4 m/S 754 mmHg 79%
    23:00 +1°C° 0.1 mm 4 m/S 754 mmHg 78%

    übermorgen, 27 Februar, Donnerstag

    Zeit Temperatur Niederschläge Wind Luftdruck Luftfeuchtigkeit
    00:00 0°C° 0.1 mm 4 m/S 754 mmHg 77%
    01:00 0°C° 0 mm 4 m/S 754 mmHg 78%
    02:00 0°C° 0 mm 4 m/S 753 mmHg 79%
    03:00 0°C° 0 mm 4 m/S 753 mmHg 81%
    04:00 0°C° 0 mm 4 m/S 752 mmHg 83%
    05:00 0°C° 0 mm 5 m/S 752 mmHg 85%
    06:00 0°C° 0 mm 5 m/S 751 mmHg 87%
    07:00 0°C° 0.4 mm 5 m/S 750 mmHg 90%
    08:00 0°C° 0.4 mm 5 m/S 750 mmHg 93%
    09:00 0°C° 0.4 mm 5 m/S 749 mmHg 96%
    10:00 0°C° 0.4 mm 4 m/S 748 mmHg 96%
    11:00 0°C° 0.4 mm 4 m/S 747 mmHg 96%
    12:00 +1°C° 0.4 mm 3 m/S 746 mmHg 96%
    13:00 +1°C° 0.8 mm 3 m/S 746 mmHg 96%
    14:00 0°C° 0.8 mm 4 m/S 746 mmHg 96%
    15:00 0°C° 0.8 mm 4 m/S 746 mmHg 96%
    16:00 0°C° 0.3 mm 4 m/S 747 mmHg 92%
    17:00 0°C° 0.3 mm 4 m/S 748 mmHg 87%
    18:00 +1°C° 0.3 mm 4 m/S 749 mmHg 83%
    19:00 0°C° 0.1 mm 4 m/S 750 mmHg 82%
    20:00 0°C° 0.1 mm 4 m/S 751 mmHg 81%
    21:00 0°C° 0.1 mm 4 m/S 752 mmHg 79%
    22:00 +1°C° 0.1 mm 5 m/S 753 mmHg 79%
    23:00 +1°C° 0.1 mm 5 m/S 754 mmHg 78%

    28 Februar, Freitag

    Zeit Temperatur Niederschläge Wind Luftdruck Luftfeuchtigkeit
    00:00 +1°C° 0.1 mm 5 m/S 755 mmHg 78%
    01:00 +1°C° 0 mm 5 m/S 756 mmHg 79%
    02:00 +1°C° 0 mm 5 m/S 756 mmHg 80%
    03:00 0°C° 0 mm 5 m/S 757 mmHg 81%
    04:00 0°C° 0 mm 5 m/S 757 mmHg 82%
    05:00 0°C° 0 mm 4 m/S 758 mmHg 83%
    06:00 0°C° 0 mm 4 m/S 758 mmHg 84%
    07:00 +1°C° 0 mm 4 m/S 759 mmHg 82%
    08:00 +1°C° 0 mm 4 m/S 759 mmHg 80%
    09:00 +2°C° 0 mm 5 m/S 759 mmHg 78%
    10:00 +3°C° 0 mm 5 m/S 759 mmHg 75%
    11:00 +5°C° 0 mm 5 m/S 759 mmHg 72%
    12:00 +5°C° 0 mm 5 m/S 760 mmHg 69%
    13:00 +5°C° 0 mm 5 m/S 759 mmHg 68%
    14:00 +5°C° 0 mm 4 m/S 759 mmHg 68%
    15:00 +5°C° 0 mm 4 m/S 758 mmHg 68%
    16:00 +4°C° 0 mm 4 m/S 758 mmHg 72%
    17:00 +4°C° 0 mm 3 m/S 757 mmHg 76%
    18:00 +3°C° 0 mm 3 m/S 757 mmHg 80%
    19:00 +3°C° 0 mm 4 m/S 756 mmHg 82%
    20:00 +1°C° 0 mm 4 m/S 755 mmHg 84%
    21:00 +1°C° 0 mm 5 m/S 755 mmHg 85%
    22:00 +1°C° 0.2 mm 5 m/S 753 mmHg 87%
    23:00 +2°C° 0.2 mm 5 m/S 752 mmHg 89%

    29 Februar, Samstag

    Zeit Temperatur Niederschläge Wind Luftdruck Luftfeuchtigkeit
    00:00 +2°C° 0.2 mm 6 m/S 751 mmHg 91%
    01:00 +3°C° 0.6 mm 6 m/S 749 mmHg 93%
    02:00 +3°C° 0.6 mm 6 m/S 748 mmHg 94%
    03:00 +4°C° 0.6 mm 6 m/S 746 mmHg 96%
    04:00 +5°C° 0.9 mm 7 m/S 745 mmHg 93%
    05:00 +6°C° 0.9 mm 7 m/S 744 mmHg 91%
    06:00 +9°C° 0.9 mm 8 m/S 743 mmHg 89%
    07:00 +9°C° 0.3 mm 8 m/S 742 mmHg 88%
    08:00 +7°C° 0.3 mm 9 m/S 741 mmHg 88%
    09:00 +7°C° 0.3 mm 9 m/S 740 mmHg 87%
    10:00 +6°C° 0.6 mm 9 m/S 741 mmHg 82%
    11:00 +6°C° 0.6 mm 9 m/S 741 mmHg 77%
    12:00 +5°C° 0.6 mm 9 m/S 741 mmHg 72%
    13:00 +5°C° 0.1 mm 9 m/S 742 mmHg 67%
    14:00 +5°C° 0.1 mm 10 m/S 743 mmHg 61%
    15:00 +6°C° 0.1 mm 10 m/S 744 mmHg 56%
    16:00 +5°C° 0 mm 9 m/S 744 mmHg 59%
    17:00 +4°C° 0 mm 8 m/S 745 mmHg 62%
    18:00 +3°C° 0 mm 7 m/S 745 mmHg 65%
    19:00 +3°C° 0 mm 7 m/S 746 mmHg 66%
    20:00 +2°C° 0 mm 7 m/S 746 mmHg 66%
    21:00 +2°C° 0 mm 7 m/S 746 mmHg 67%
    22:00 +2°C° 0.1 mm 7 m/S 747 mmHg 68%
    23:00 +2°C° 0.1 mm 7 m/S 747 mmHg 69%

    1 März, Sonntag

    Zeit Temperatur Niederschläge Wind Luftdruck Luftfeuchtigkeit
    00:00 +2°C° 0.1 mm 6 m/S 748 mmHg 69%
    01:00 +2°C° 0.1 mm 6 m/S 748 mmHg 70%
    02:00 +1°C° 0.1 mm 6 m/S 748 mmHg 71%
    03:00 +1°C° 0.1 mm 6 m/S 748 mmHg 72%
    04:00 +1°C° 0.1 mm 6 m/S 748 mmHg 75%
    05:00 +1°C° 0.1 mm 6 m/S 749 mmHg 78%
    06:00 0°C° 0.1 mm 7 m/S 749 mmHg 81%
    07:00 +2°C° 0.2 mm 7 m/S 749 mmHg 78%
    08:00 +2°C° 0.2 mm 7 m/S 749 mmHg 74%
    09:00 +2°C° 0.2 mm 8 m/S 749 mmHg 71%
    10:00 +4°C° 0.4 mm 8 m/S 750 mmHg 71%
    11:00 +4°C° 0.4 mm 8 m/S 750 mmHg 71%
    12:00 +4°C° 0.4 mm 8 m/S 750 mmHg 71%
    13:00 +4°C° 0.3 mm 7 m/S 750 mmHg 69%
    14:00 +4°C° 0.3 mm 7 m/S 750 mmHg 66%
    15:00 +5°C° 0.3 mm 6 m/S 749 mmHg 64%
    16:00 +5°C° 0 mm 5 m/S 750 mmHg 69%
    17:00 +4°C° 0 mm 4 m/S 750 mmHg 73%
    18:00 +3°C° 0 mm 2 m/S 750 mmHg 78%
    19:00 +3°C° 0 mm 2 m/S 750 mmHg 80%
    20:00 +3°C° 0 mm 2 m/S 750 mmHg 83%
    21:00 +2°C° 0 mm 3 m/S 750 mmHg 85%
    22:00 +1°C° 0 mm 3 m/S 751 mmHg 87%
    23:00 +1°C° 0 mm 3 m/S 751 mmHg 88%
    Mehr zeigen